Weather History for New Philadelphia, OH

Change the Weather History Date:

Sunday, March 24, 2013

  Actual Average Record
Temperature  
Mean Temperature 35 °F 43 °F  
Max Temperature 40 °F 54 °F 78 °F (1966)
Min Temperature 29 °F 32 °F 13 °F (2014)
Degree Days  
Heating Degree Days 30 22  
Month to date heating degree days 707 634  
Since 1 July heating degree days 4837 4841  
Cooling Degree Days 0 0  
Month to date cooling degree days 0 0  
Year to date cooling degree days 0 0  
Moisture  
Dew Point 22 °F    
Average Humidity 62    
Maximum Humidity 75    
Minimum Humidity 48    
Precipitation  
Precipitation 0.02 in 0.11 in 0.82 in (1993)
Month to date precipitation 1.31 2.32  
Year to date precipitation 4.47 7.28  
Sea Level Pressure  
Sea Level Pressure 29.78 in    
Wind  
Wind Speed 7 mph (ENE)    
Max Wind Speed 16 mph    
Max Gust Speed 24 mph    
Visibility 10 miles    
Events      
T = Trace of Precipitation, MM = Missing Value Source: NWS Daily Summary

Daily Weather History Graph

Daily Weather History Graph

Search for Another Location

Airport:

Trip Planner

Search our weather history database for the weather conditions in past years. The results will help you decide how hot, cold, wet, or windy it might be!

Date:

Astronomy

Mar. 24, 2013 Rise Set
Actual Time 7:22 AM EDT 7:42 PM EDT
Civil Twilight 6:54 AM EDT 8:09 PM EDT
Nautical Twilight 6:22 AM EDT 8:41 PM EDT
Astronomical Twilight 5:50 AM EDT 9:14 PM EDT
Moon 5:08 PM EDT (3/24) 5:32 AM EDT (3/24)
Length of Visible Light 13h 14m
Length of Day
12h 20m
Waxing Gibbous, 91% of the Moon is Illuminated
Mar 24
Waxing Gibbous
Mar 27
Full
Apr 3
Last Quarter
Apr 10
New
Apr 18
First Quarter

Hourly Weather History & Observations

Time (EDT) Temp. Windchill Dew Point Humidity Pressure Visibility Wind Dir Wind Speed Gust Speed Precip Events Conditions
12:53 AM 30.9 °F - 21.0 °F 67% 30.01 in 10.0 mi Calm Calm - N/A   Clear
1:53 AM 30.9 °F 27.5 °F 21.0 °F 67% 30.00 in 10.0 mi ENE 3.5 mph - N/A   Clear
2:53 AM 30.0 °F 26.5 °F 21.0 °F 69% 29.98 in 10.0 mi ENE 3.5 mph - N/A   Clear
3:53 AM 30.0 °F 26.5 °F 19.9 °F 66% 29.99 in 10.0 mi East 3.5 mph - N/A   Clear
4:53 AM 28.9 °F - 21.0 °F 72% 29.99 in 10.0 mi Calm Calm - N/A   Clear
5:53 AM 28.9 °F 22.8 °F 19.9 °F 69% 29.96 in 10.0 mi NE 5.8 mph - N/A   Clear
6:53 AM 28.9 °F 22.8 °F 19.9 °F 69% 29.96 in 10.0 mi East 5.8 mph - N/A   Clear
7:53 AM 28.9 °F 23.9 °F 19.9 °F 69% 29.95 in 10.0 mi Variable 4.6 mph - N/A   Clear
8:53 AM 30.0 °F 23.2 °F 21.0 °F 69% 29.92 in 10.0 mi ENE 6.9 mph - N/A   Clear
9:53 AM 30.9 °F 22.2 °F 21.0 °F 67% 29.87 in 10.0 mi ENE 10.4 mph - N/A   Clear
10:53 AM 33.1 °F 24.9 °F 21.0 °F 61% 29.83 in 10.0 mi ENE 10.4 mph 17.3 mph N/A   Clear
11:53 AM 35.1 °F 26.4 °F 19.9 °F 54% 29.80 in 10.0 mi ENE 12.7 mph - N/A   Clear
12:53 PM 37.0 °F 29.3 °F 19.9 °F 50% 29.76 in 10.0 mi ENE 11.5 mph 20.7 mph N/A   Clear
1:53 PM 37.9 °F 32.7 °F 19.9 °F 48% 29.75 in 10.0 mi NNE 6.9 mph - N/A   Partly Cloudy
2:53 PM 37.9 °F 32.7 °F 19.9 °F 48% 29.73 in 10.0 mi NNE 6.9 mph - N/A   Overcast
3:53 PM 37.9 °F 32.7 °F 21.0 °F 51% 29.69 in 10.0 mi NE 6.9 mph - N/A   Overcast
4:53 PM 39.0 °F 32.3 °F 21.0 °F 49% 29.64 in 10.0 mi ENE 10.4 mph - N/A   Overcast
5:53 PM 39.0 °F 35.7 °F 21.0 °F 49% 29.61 in 10.0 mi East 4.6 mph - N/A   Mostly Cloudy
6:53 PM 39.9 °F 35.1 °F 21.0 °F 47% 29.58 in 10.0 mi East 6.9 mph - N/A   Overcast
8:53 PM 39.9 °F 33.9 °F 25.0 °F 55% 29.56 in 10.0 mi East 9.2 mph - N/A   Overcast
9:53 PM 37.0 °F 31.0 °F 28.0 °F 70% 29.54 in 10.0 mi East 8.1 mph 17.3 mph N/A   Overcast
10:02 PM 35.6 °F 27.5 °F 28.4 °F 75% 29.51 in 10.0 mi ENE 11.5 mph 18.4 mph N/A   Overcast
10:53 PM 36.0 °F 30.3 °F 28.9 °F 76% 29.51 in 10.0 mi East 6.9 mph - N/A   Overcast
11:53 PM 36.0 °F 29.0 °F 28.0 °F 73% 29.49 in 10.0 mi East 9.2 mph - 0.00 in   Overcast